FW8343 Weather Reports


time (UTC)temp
F
wind
direction
speed
knots
gust
knots
rain 1hr
in
rain 24hr
in
rain mn
in
humidity
%
barometer
mb
20260510130515 40 331 1.7 8.7 0.00 0.00 0.00 72 1018.4
20260510130044 40 306 2.6 8.7 0.00 0.00 0.00 73 1018.3
20260510125511 40 264 1.7 7.8 0.00 0.00 0.00 75 1018.2
20260510125017 39 298 1.7 7.8 0.00 0.00 0.00 75 1018.2
20260510124531 39 311 1.7 7.8 0.00 0.00 0.00 75 1018.0
20260510124009 39 0 0.9 7.0 0.00 0.00 0.00 76 1017.9
20260510123514 39 252 1.7 8.7 0.00 0.00 0.00 76 1017.9
20260510123030 39 317 2.6 8.7 0.00 0.00 0.00 75 1017.9
20260510122510 38 326 0.9 7.0 0.00 0.00 0.00 76 1017.8
20260510122016 38 235 1.7 9.6 0.00 0.00 0.00 76 1017.8
20260510121535 38 294 1.7 9.6 0.00 0.00 0.00 76 1017.7
20260510121013 38 295 1.7 7.0 0.00 0.00 0.00 75 1017.7
20260510120514 38 309 2.6 7.0 0.00 0.00 0.00 76 1017.6
20260510120033 38 245 1.7 6.1 0.00 0.00 0.00 76 1017.6
20260510115510 37 267 1.7 4.3 0.00 0.00 0.00 76 1017.6
20260510115014 37 262 0.0 5.2 0.00 0.00 0.00 76 1017.4
20260510114532 37 259 0.9 5.2 0.00 0.00 0.00 77 1017.4
20260510114013 37 0 0.9 5.2 0.00 0.00 0.00 76 1017.3
20260510113512 36 284 0.9 6.1 0.00 0.00 0.00 77 1017.2
20260510113030 36 289 0.9 6.1 0.00 0.00 0.00 77 1017.1
20260510112511 36 260 0.9 4.3 0.00 0.00 0.00 77 1017.0
20260510112010 36 265 0.9 4.3 0.00 0.00 0.00 77 1016.9
20260510111530 35 264 0.9 3.5 0.00 0.00 0.00 77 1016.9
20260510111010 35 0 0.9 5.2 0.00 0.00 0.00 76 1016.8
20260510110514 35 0 0.0 5.2 0.00 0.00 0.00 76 1016.7
20260510110040 35 0 0.0 3.5 0.00 0.00 0.00 76 1016.8
20260510105510 35 278 0.9 5.2 0.00 0.00 0.00 76 1016.7
20260510105011 35 0 0.9 5.2 0.00 0.00 0.00 76 1016.7
20260510104530 35 331 0.0 3.5 0.00 0.00 0.00 75 1016.6
20260510104016 35 331 0.9 3.5 0.00 0.00 0.00 75 1016.6
20260510103513 35 331 0.9 3.5 0.00 0.00 0.00 75 1016.4
20260510103032 35 331 0.9 2.6 0.00 0.00 0.00 75 1016.3
20260510102513 35 331 0.0 2.6 0.00 0.00 0.00 74 1016.3
20260510102012 35 0 0.0 1.7 0.00 0.00 0.00 74 1016.1
20260510101534 35 331 0.0 2.6 0.00 0.00 0.00 74 1016.1
20260510101009 36 0 0.0 2.6 0.00 0.00 0.00 73 1016.0
20260510100515 36 0 0.0 1.7 0.00 0.00 0.00 73 1016.0
20260510100031 36 0 0.9 2.6 0.00 0.00 0.00 73 1015.9
20260510095516 35 331 0.0 2.6 0.00 0.00 0.00 73 1015.9
20260510095013 36 331 0.9 2.6 0.00 0.00 0.00 73 1015.9
20260510094531 36 331 0.0 1.7 0.00 0.00 0.00 72 1015.7
20260510094012 36 0 0.0 1.7 0.00 0.00 0.00 72 1015.8
20260510093511 36 0 0.0 2.6 0.00 0.00 0.00 71 1015.6
20260510093032 36 331 0.9 2.6 0.00 0.00 0.00 71 1015.7
20260510092511 36 331 0.9 2.6 0.00 0.00 0.00 70 1015.6
20260510092015 36 331 0.0 1.7 0.00 0.00 0.00 70 1015.6
20260510091536 37 0 0.0 1.7 0.00 0.00 0.00 70 1015.5
20260510091011 37 0 0.0 0.9 0.00 0.00 0.00 70 1015.5
20260510090514 37 0 0.0 1.7 0.00 0.00 0.00 70 1015.5
20260510090031 37 0 0.0 1.7 0.00 0.00 0.00 70 1015.4
20260510085511 37 331 0.0 0.9 0.00 0.00 0.00 69 1015.4
20260510085013 37 0 0.0 0.0 0.00 0.00 0.00 69 1015.4
20260510084535 37 0 0.0 0.0 0.00 0.00 0.00 69 1015.3
20260510084017 37 0 0.0 0.0 0.00 0.00 0.00 69 1015.3
20260510083512 37 0 0.0 0.0 0.00 0.00 0.00 68 1015.2
20260510083028 37 0 0.0 0.0 0.00 0.00 0.00 67 1015.1
20260510082512 37 0 0.0 0.0 0.00 0.00 0.00 67 1015.1
20260510082012 37 0 0.0 0.0 0.00 0.00 0.00 66 1015.0
20260510081534 38 0 0.0 0.9 0.00 0.00 0.00 66 1015.0
20260510081009 38 0 0.0 0.9 0.00 0.00 0.00 66 1014.9
20260510080512 38 0 0.0 0.0 0.00 0.00 0.00 65 1014.8
20260510080031 39 0 0.0 0.0 0.00 0.00 0.00 66 1014.8
20260510075513 39 0 0.0 0.9 0.00 0.00 0.00 66 1014.8
20260510075012 39 0 0.0 0.9 0.00 0.00 0.00 66 1014.8
20260510074530 39 0 0.0 0.9 0.00 0.00 0.00 65 1014.8
20260510074016 39 0 0.0 0.0 0.00 0.00 0.00 65 1014.7
20260510073516 39 0 0.0 1.7 0.00 0.00 0.00 65 1014.7
20260510073032 39 0 0.0 1.7 0.00 0.00 0.00 66 1014.7
20260510072510 39 331 0.0 1.7 0.00 0.00 0.00 65 1014.7
20260510072017 39 0 0.0 1.7 0.00 0.00 0.00 66 1014.8
20260510071531 39 331 0.0 1.7 0.00 0.00 0.00 66 1014.7
20260510071010 38 0 0.0 2.6 0.00 0.00 0.00 67 1014.6
20260510070512 38 0 0.0 2.6 0.00 0.00 0.00 68 1014.7
20260510070036 38 0 0.0 2.6 0.00 0.00 0.00 68 1014.6
20260510065511 38 0 0.0 0.9 0.00 0.00 0.00 69 1014.7
20260510065014 38 0 0.0 0.9 0.00 0.00 0.00 68 1014.6
20260510064535 38 0 0.0 0.0 0.00 0.00 0.00 68 1014.5
20260510064010 38 0 0.0 0.0 0.00 0.00 0.00 68 1014.5
20260510063516 37 0 0.0 0.0 0.00 0.00 0.00 68 1014.6
20260510063034 37 0 0.0 0.0 0.00 0.00 0.00 69 1014.6
20260510062511 37 0 0.0 0.0 0.00 0.00 0.00 69 1014.7
20260510062014 36 0 0.0 0.0 0.00 0.00 0.00 69 1014.6
20260510061533 36 0 0.0 0.0 0.00 0.00 0.00 69 1014.6
20260510061009 36 0 0.0 0.0 0.00 0.00 0.00 70 1014.5
20260510060516 36 0 0.0 0.0 0.00 0.00 0.00 73 1014.5
20260510060032 36 0 0.0 0.0 0.00 0.00 0.00 70 1014.5
20260510055510 36 0 0.0 0.0 0.00 0.00 0.00 69 1014.5
20260510055013 36 0 0.0 0.0 0.00 0.00 0.00 71 1014.5
20260510054532 36 0 0.0 0.0 0.00 0.00 0.00 72 1014.5
20260510054016 37 0 0.0 0.0 0.00 0.00 0.00 72 1014.4
20260510053511 37 0 0.0 0.0 0.00 0.00 0.00 67 1014.4
20260510053034 37 0 0.0 0.0 0.00 0.00 0.00 66 1014.4
20260510052511 37 0 0.0 0.0 0.00 0.00 0.00 66 1014.4
20260510052017 38 0 0.0 0.0 0.00 0.00 0.00 64 1014.3
20260510051530 38 0 0.0 0.0 0.00 0.00 0.00 64 1014.4
20260510051011 38 0 0.0 0.0 0.00 0.00 0.00 64 1014.3
20260510050510 38 0 0.0 0.0 0.00 0.00 0.00 64 1014.4
20260510050033 38 0 0.0 0.0 0.00 0.00 0.00 63 1014.4
20260510045519 38 0 0.0 0.0 0.00 0.00 0.00 64 1014.4
20260510045013 38 0 0.0 0.0 0.00 0.00 0.00 64 1014.4
20260510044547 38 0 0.0 0.0 0.00 0.00 0.00 64 1014.4
20260510044011 38 0 0.0 0.0 0.00 0.00 0.00 64 1014.4
20260510043513 38 0 0.0 0.0 0.00 0.00 0.00 64 1014.4
20260510043030 38 0 0.0 0.0 0.00 0.00 0.00 64 1014.3
20260510042513 38 0 0.0 0.0 0.00 0.00 0.00 65 1014.3
20260510042015 38 0 0.0 0.0 0.00 0.00 0.00 64 1014.3
20260510041529 39 0 0.0 0.0 0.00 0.00 0.00 63 1014.3
20260510041011 39 0 0.0 0.0 0.00 0.00 0.00 63 1014.3
20260510040509 39 0 0.0 0.0 0.00 0.00 0.00 63 1014.3
20260510040032 39 0 0.0 0.0 0.00 0.00 0.00 62 1014.2
20260510035510 40 0 0.0 0.0 0.00 0.00 0.00 60 1014.2
20260510035011 40 0 0.0 0.0 0.00 0.00 0.00 60 1014.2
20260510034532 40 0 0.0 0.0 0.00 0.00 0.00 61 1014.1
20260510034011 40 0 0.0 0.0 0.00 0.00 0.00 59 1014.0
20260510033515 41 0 0.0 0.0 0.00 0.00 0.00 58 1014.0
20260510033030 41 0 0.0 0.0 0.00 0.00 0.00 58 1013.9
20260510032510 41 0 0.0 0.0 0.00 0.00 0.00 59 1014.0
20260510032017 41 0 0.0 0.0 0.00 0.00 0.00 58 1013.9
20260510031530 42 0 0.0 0.0 0.00 0.00 0.00 57 1013.9
20260510031011 42 0 0.0 0.0 0.00 0.00 0.00 57 1013.9
20260510030513 42 0 0.0 0.0 0.00 0.00 0.00 57 1013.8
20260510030030 43 0 0.0 0.0 0.00 0.00 0.00 56 1013.8
20260510025511 43 0 0.0 0.0 0.00 0.00 0.00 54 1013.8
20260510025014 43 0 0.0 0.0 0.00 0.00 0.00 54 1013.7
20260510024532 43 0 0.0 0.9 0.00 0.00 0.00 55 1013.6
20260510024012 43 0 0.0 0.9 0.00 0.00 0.00 55 1013.6
20260510023517 44 0 0.0 0.9 0.00 0.00 0.00 55 1013.5
20260510023032 44 0 0.0 2.6 0.00 0.00 0.00 54 1013.4
20260510022515 44 0 0.0 2.6 0.00 0.00 0.00 55 1013.4
20260510022018 44 0 0.0 2.6 0.00 0.00 0.00 53 1013.4
20260510021532 44 0 0.0 3.5 0.00 0.00 0.00 53 1013.3
20260510021011 44 0 0.9 3.5 0.00 0.00 0.00 52 1013.2
20260510020515 44 0 0.0 1.7 0.00 0.00 0.00 51 1013.0
20260510020032 45 0 0.0 2.6 0.00 0.00 0.00 51 1012.9
20260510015515 45 313 0.0 3.5 0.00 0.00 0.00 51 1012.8
20260510015010 45 0 0.0 3.5 0.00 0.00 0.00 51 1012.8
20260510014529 45 0 0.9 4.3 0.00 0.00 0.00 49 1012.7
20260510014010 46 349 0.9 4.3 0.00 0.00 0.00 50 1012.6
20260510013512 46 0 0.0 7.8 0.00 0.00 0.00 49 1012.4
20260510013029 46 302 1.7 7.8 0.00 0.00 0.00 48 1012.3
20260510012511 46 5 0.9 4.3 0.00 0.00 0.00 48 1012.1
20260510012015 46 292 0.9 7.0 0.00 0.00 0.00 48 1011.9
20260510011528 47 307 0.9 7.0 0.00 0.00 0.00 47 1011.9
20260510011011 47 300 1.7 7.0 0.00 0.00 0.00 46 1011.8
20260510010510 48 0 1.7 7.0 0.00 0.00 0.00 46 1011.7
20260510010032 48 307 1.7 7.0 0.00 0.00 0.00 44 1011.6
20260510005512 48 317 1.7 5.2 0.00 0.00 0.00 44 1011.5
20260510005018 49 288 0.9 5.2 0.00 0.00 0.00 44 1011.3
20260510004532 49 325 0.9 7.8 0.00 0.00 0.00 43 1011.3
20260510004011 49 360 1.7 9.6 0.00 0.00 0.00 42 1011.2
20260510003515 50 312 0.9 9.6 0.00 0.00 0.00 43 1011.2
20260510003033 50 284 4.3 9.6 0.00 0.00 0.00 41 1011.2
20260510002510 50 321 1.7 9.6 0.00 0.00 0.00 41 1011.0
20260510002013 50 246 1.7 7.8 0.00 0.00 0.00 43 1010.9
20260510001531 50 325 2.6 7.8 0.00 0.00 0.00 41 1010.8
20260510001011 51 331 1.7 7.0 0.00 0.00 0.00 41 1010.7
20260510000514 51 279 0.9 7.0 0.00 0.00 0.00 42 1010.7
20260510000036 51 273 1.7 11.3 0.00 0.00 0.00 42 1010.5
20260509235509 51 0 1.7 11.3 0.00 0.00 0.00 43 1010.4
20260509235012 51 343 3.5 10.4 0.00 0.00 0.00 40 1010.3
20260509234539 52 302 2.6 10.4 0.00 0.00 0.00 42 1010.3
20260509234014 51 316 3.5 10.4 0.00 0.00 0.00 39 1010.4
20260509233511 51 326 1.7 7.0 0.00 0.00 0.00 40 1010.3
20260509233030 51 323 2.6 7.0 0.00 0.00 0.00 40 1010.3
20260509232511 51 327 1.7 7.8 0.00 0.00 0.00 40 1010.2
20260509232017 51 268 1.7 7.8 0.00 0.00 0.00 42 1010.2
20260509231533 51 0 0.9 4.3 0.00 0.00 0.00 45 1010.2
20260509231010 50 0 0.0 4.3 0.00 0.00 0.00 46 1010.2
20260509230515 50 332 0.9 4.3 0.00 0.00 0.00 43 1010.1
20260509230031 50 0 0.9 8.7 0.00 0.00 0.00 43 1010.0
20260509225512 50 267 2.6 8.7 0.00 0.00 0.00 44 1010.0
20260509225015 50 0 0.0 6.1 0.00 0.00 0.00 43 1009.9
20260509224544 50 0 0.9 5.2 0.00 0.00 0.00 45 1010.0
20260509224009 51 329 0.9 6.1 0.00 0.00 0.00 42 1009.9
20260509223515 51 334 1.7 8.7 0.00 0.00 0.00 41 1009.9
20260509223030 51 348 0.9 8.7 0.00 0.00 0.00 44 1009.8
20260509222509 51 327 3.5 9.6 0.00 0.00 0.00 40 1009.8
20260509222013 51 296 2.6 9.6 0.00 0.00 0.00 40 1009.7
20260509221531 51 315 2.6 9.6 0.00 0.00 0.00 41 1009.8
20260509221011 51 325 0.9 7.0 0.00 0.00 0.00 44 1009.7
20260509220515 51 329 2.6 9.6 0.00 0.00 0.00 40 1009.7
20260509220029 50 0 0.9 12.2 0.00 0.00 0.00 42 1009.7
20260509215512 50 5 2.6 12.2 0.00 0.00 0.00 41 1009.7
20260509215015 50 306 2.6 12.2 0.00 0.00 0.00 41 1009.7
20260509214535 51 313 3.5 9.6 0.00 0.00 0.00 40 1009.6
20260509214012 51 257 1.7 7.0 0.00 0.00 0.00 39 1009.6
20260509213512 51 323 0.9 7.8 0.00 0.00 0.00 41 1009.6
20260509213030 51 295 1.7 9.6 0.00 0.00 0.00 43 1009.5
20260509212511 51 32 1.7 10.4 0.00 0.00 0.00 41 1009.5
20260509212018 51 43 2.6 10.4 0.00 0.00 0.00 40 1009.4
20260509211529 51 5 1.7 7.0 0.00 0.00 0.00 44 1009.5
20260509211010 51 319 2.6 7.8 0.00 0.00 0.00 41 1009.4
20260509210514 51 309 3.5 7.8 0.00 0.00 0.00 42 1009.5
20260509210031 51 67 2.6 10.4 0.00 0.00 0.00 41 1009.3
20260509205510 51 290 4.3 12.2 0.00 0.00 0.00 41 1009.3
20260509205011 51 294 4.3 14.8 0.00 0.00 0.00 40 1009.3
20260509204529 51 320 4.3 14.8 0.00 0.00 0.00 42 1009.2
20260509204012 51 0 1.7 9.6 0.00 0.00 0.00 42 1009.2
20260509203515 51 0 3.5 9.6 0.00 0.00 0.00 41 1009.2
20260509203035 52 17 1.7 8.7 0.00 0.00 0.00 41 1009.0
20260509202510 52 314 1.7 10.4 0.00 0.00 0.00 43 1009.1
20260509202016 52 313 2.6 10.4 0.00 0.00 0.00 42 1009.1
20260509201529 52 15 4.3 9.6 0.00 0.00 0.00 41 1009.0
20260509201011 51 240 1.7 12.2 0.00 0.00 0.00 43 1008.8
20260509200512 50 298 3.5 12.2 0.00 0.00 0.00 44 1009.0
20260509200030 51 293 4.3 12.2 0.00 0.00 0.00 42 1008.9
20260509195516 51 317 0.0 11.3 0.00 0.00 0.00 45 1008.7
20260509195013 51 313 4.3 11.3 0.00 0.00 0.00 40 1008.8
20260509194533 51 293 3.5 10.4 0.00 0.00 0.00 41 1008.8
20260509194010 51 316 2.6 9.6 0.00 0.00 0.00 43 1008.8
20260509193514 52 330 3.5 13.9 0.00 0.00 0.00 42 1008.6
20260509193032 52 32 4.3 13.9 0.00 0.00 0.00 42 1008.5
20260509192511 51 318 5.2 13.9 0.00 0.00 0.00 41 1008.5
20260509192013 52 258 1.7 7.8 0.00 0.00 0.00 44 1008.4
20260509191530 53 301 2.6 11.3 0.00 0.00 0.00 44 1008.4
20260509191013 52 342 5.2 11.3 0.00 0.00 0.00 42 1008.3
20260509190510 52 254 3.5 11.3 0.00 0.00 0.00 43 1008.3
20260509190031 51 331 3.5 11.3 0.00 0.00 0.00 43 1008.3
20260509185509 52 293 3.5 11.3 0.00 0.00 0.00 43 1008.0
20260509185014 52 323 3.5 11.3 0.00 0.00 0.00 42 1007.9
20260509184542 52 199 1.7 8.7 0.00 0.00 0.00 44 1007.9
20260509184010 51 323 2.6 8.7 0.00 0.00 0.00 47 1007.9
20260509183514 52 302 1.7 9.6 0.00 0.00 0.00 44 1007.9
20260509183029 52 284 2.6 9.6 0.00 0.00 0.00 44 1007.7
20260509182510 52 319 3.5 10.4 0.00 0.00 0.00 45 1007.6
20260509182015 51 340 2.6 10.4 0.00 0.00 0.00 46 1007.7
20260509181529 51 288 2.6 9.6 0.00 0.00 0.00 44 1007.5
20260509181011 52 283 4.3 9.6 0.00 0.00 0.00 43 1007.6
20260509180515 53 282 3.5 8.7 0.00 0.00 0.00 43 1007.4
20260509180053 53 284 2.6 8.7 0.00 0.00 0.00 44 1007.3
20260509175511 51 242 1.7 9.6 0.00 0.00 0.00 49 1007.3
20260509175014 51 273 3.5 9.6 0.00 0.00 0.00 44 1007.2
20260509174532 52 339 3.5 8.7 0.00 0.00 0.00 44 1007.2
20260509174010 52 312 0.9 8.7 0.00 0.00 0.00 45 1007.1
20260509173513 52 313 0.9 9.6 0.00 0.00 0.00 46 1007.1
20260509173040 53 271 2.6 9.6 0.00 0.00 0.00 44 1006.9
20260509172515 53 0 1.7 8.7 0.00 0.00 0.00 43 1007.0
20260509172011 52 254 2.6 9.6 0.00 0.00 0.00 45 1006.9
20260509171529 52 307 1.7 9.6 0.00 0.00 0.00 46 1006.7
20260509171011 52 309 2.6 9.6 0.00 0.00 0.00 44 1006.7
20260509170512 53 303 2.6 11.3 0.00 0.00 0.00 42 1006.7
20260509170045 54 265 3.5 11.3 0.00 0.00 0.00 42 1006.6
20260509165513 54 331 3.5 11.3 0.00 0.00 0.00 45 1006.5
20260509165013 53 312 1.7 8.7 0.00 0.00 0.00 40 1006.6
20260509164531 53 286 1.7 17.4 0.00 0.00 0.00 45 1006.4
20260509164010 52 307 1.7 17.4 0.00 0.00 0.00 45 1006.4
20260509163512 52 296 2.6 11.3 0.00 0.00 0.00 42 1006.2
20260509163031 53 5 2.6 8.7 0.00 0.00 0.00 44 1006.2
20260509162512 52 315 3.5 8.7 0.00 0.00 0.00 42 1006.1
20260509162016 53 17 2.6 10.4 0.00 0.00 0.00 42 1006.1
20260509161529 53 355 3.5 13.9 0.00 0.00 0.00 39 1006.0
20260509161011 53 284 4.3 13.9 0.00 0.00 0.00 39 1005.8
20260509160511 53 333 3.5 13.9 0.00 0.00 0.00 40 1005.7
20260509160028 52 321 3.5 11.3 0.00 0.00 0.00 41 1005.6
20260509155509 52 319 2.6 11.3 0.00 0.00 0.00 40 1005.7
20260509155013 52 36 2.6 11.3 0.00 0.00 0.00 41 1005.6
20260509154532 52 355 4.3 9.6 0.00 0.00 0.00 39 1005.4
20260509154009 52 348 3.5 9.6 0.00 0.00 0.00 42 1005.4
20260509153511 52 304 4.3 10.4 0.00 0.00 0.00 39 1005.3
20260509153033 53 273 4.3 10.4 0.00 0.00 0.00 41 1005.1
20260509152508 52 300 2.6 11.3 0.00 0.00 0.00 43 1005.1
20260509152013 52 329 4.3 11.3 0.00 0.00 0.00 41 1005.0
20260509151530 52 274 3.5 11.3 0.00 0.00 0.00 41 1005.0
20260509151011 51 327 5.2 10.4 0.00 0.00 0.00 39 1004.8
20260509150517 51 326 5.2 14.8 0.00 0.00 0.00 40 1004.8
20260509150028 51 309 3.5 14.8 0.00 0.00 0.00 41 1004.6
20260509145510 51 239 2.6 14.8 0.00 0.00 0.00 40 1004.6
20260509145012 51 333 2.6 13.9 0.00 0.00 0.00 42 1004.5
20260509144532 51 275 2.6 11.3 0.00 0.00 0.00 39 1004.5
20260509144008 50 318 2.6 7.8 0.00 0.00 0.00 42 1004.5
20260509143513 49 325 1.7 8.7 0.00 0.00 0.00 44 1004.4
20260509143035 49 317 2.6 9.6 0.00 0.00 0.00 42 1004.4
20260509142512 49 324 3.5 9.6 0.00 0.00 0.00 44 1004.5
20260509142015 49 317 3.5 9.6 0.00 0.00 0.00 41 1004.3
20260509141540 49 336 3.5 12.2 0.00 0.00 0.00 43 1004.2
20260509141011 49 306 3.5 12.2 0.00 0.00 0.00 46 1003.9
20260509140515 48 34 1.7 7.8 0.00 0.00 0.00 47 1004.0
20260509140031 48 314 1.7 7.8 0.00 0.00 0.00 44 1003.9
20260509135513 47 281 1.7 7.8 0.00 0.00 0.00 45 1004.0
20260509135012 46 294 1.7 7.8 0.00 0.00 0.00 45 1003.9
20260509134533 46 41 2.6 7.8 0.00 0.00 0.00 45 1004.0
20260509134009 46 351 2.6 10.4 0.00 0.00 0.00 44 1003.9
20260509133512 46 322 0.9 10.4 0.00 0.00 0.00 46 1004.0
20260509133028 46 313 2.6 10.4 0.00 0.00 0.00 46 1003.8
20260509132516 46 304 3.5 10.4 0.00 0.00 0.00 45 1003.7
20260509132013 46 296 4.3 10.4 0.00 0.00 0.00 46 1003.7
20260509131551 46 344 0.9 4.3 0.00 0.00 0.00 48 1003.7
20260509131011 46 340 0.9 4.3 0.00 0.00 0.00 49 1003.6